Flag for Venezuela Weather past 2 weeks in Barquisimeto, Venezuela

Now
81 °F

Clear.


Feels Like: 84 °F
Forecast: 77 / 96 °F
Wind: 6 mph from East

Location: Barquisimeto Airport

Current Time: Apr 27, 2015 at 10:07:31 PM

Latest Report: Apr 27, 2015 at 9:30 PM


Visibility: 10 mi

Pressure: 29.95 "Hg

Humidity: 70%

Dew point: 70 °F

Location of BarquisimetoLocation

Historic Weather in Barquisimeto — Graph

°F

Barquisimeto temperature yesterday

Maximum temperature yesterday: 88 °F (at 2:30 PM)
Minimum temperature yesterday: 70 °F (at 6:30 AM)
Average temperature yesterday: 80 °F

Past Weeks' High & Low Weather Summary

 TemperatureHumidityPressure
High93 °F (Apr 27, 2:30 PM)100% (Apr 25, 9:30 AM)30.07 "Hg (Apr 25, 9:30 AM)
Low46 °F (Apr 25, 9:30 AM)34% (Apr 27, 2:30 PM)29.86 "Hg (Apr 27, 4:30 PM)
Average79 °F69%29.99 "Hg
* Reported Apr 12 8:30 PM — Apr 27 8:30 PM, Barquisimeto, Weather by CustomWeather, © 2015

Note: Actual official high and low records may vary slightly from our data, if they occured in-between our weather recording intervals... More about our weather records

Advertising

Barquisimeto weather history for previous 24 hours

 ConditionsComfort  
Time TempWeatherWind HumidityBarometerVisibility
8:30 PM
Mon, Apr 27
82 °FClear.9 mph62%29.92 "Hg10 mi
7:30 PM84 °FClear.6 mph55%29.92 "Hg10 mi
6:30 PM86 °FPassing clouds.9 mph49%29.89 "HgN/A
5:30 PM90 °FPassing clouds.13 mph41%29.86 "HgN/A
4:30 PM91 °FPassing clouds.15 mph36%29.86 "HgN/A
3:30 PM91 °FPassing clouds.17 mph36%29.89 "HgN/A
2:30 PM93 °FPassing clouds.15 mph34%29.89 "HgN/A
1:30 PM90 °FPassing clouds.17 mph41%29.92 "HgN/A
12:30 PM90 °FScattered clouds.12 mph43%29.95 "HgN/A
11:30 AM88 °FPassing clouds.22 mph49%29.98 "HgN/A
10:30 AM86 °FPassing clouds.23 mph55%29.98 "HgN/A
9:30 AM84 °FScattered clouds.18 mph58%30.01 "HgN/A
8:30 AM77 °FScattered clouds.7 mph79%29.98 "HgN/A
7:30 AM73 °FFog.7 mph89%29.98 "Hg1 mi
6:30 AM72 °FFog.5 mph88%29.98 "Hg2 mi
5:30 AM72 °FPartly sunny.3 mph88%29.95 "HgN/A
1:30 AM73 °FPassing clouds.5 mph78%29.95 "HgN/A
10:30 PM
Sun, Apr 26
77 °FPassing clouds.No wind74%29.98 "HgN/A
Weather by CustomWeather, © 2015

See weather overviewHow to use our weather pages